This is the latest recevied weather packets stored in our database for station/object N8QF. If no packets are shown the sender has not sent any weather packets the latest 10 day(s).
| Time | Temp. | Humidity | Pressure | Rain* | Wind** | Luminosity | Snow |
|---|---|---|---|---|---|---|---|
| 1777815708 | 10° C | 58% | 1018.6 hPa | 0 mm | - | - | - |
| 1777815408 | 10° C | 60% | 1018.6 hPa | 0 mm | - | - | - |
| 1777815107 | 9.44° C | 62% | 1018.6 hPa | 0 mm | - | - | - |
| 1777814807 | 8.89° C | 62% | 1018.6 hPa | 0 mm | - | - | - |
| 1777814507 | 8.89° C | 64% | 1018.6 hPa | 0 mm | - | - | - |
| 1777814205 | 8.33° C | 66% | 1018.5 hPa | 0 mm | - | - | - |
| 1777813906 | 7.78° C | 67% | 1018.6 hPa | 0 mm | - | - | - |
| 1777813605 | 7.78° C | 67% | 1018.7 hPa | 0 mm | - | - | - |
| 1777813304 | 7.22° C | 69% | 1018.6 hPa | 0 mm | - | - | - |
| 1777813003 | 7.22° C | 71% | 1018.6 hPa | 0 mm | - | - | - |
| 1777812703 | 6.67° C | 72% | 1018.6 hPa | 0 mm | - | - | - |
| 1777812403 | 6.67° C | 76% | 1018.6 hPa | 0 mm | - | - | - |
| 1777812103 | 6.11° C | 77% | 1018.7 hPa | 0 mm | - | - | - |
| 1777811802 | 5.56° C | 78% | 1018.7 hPa | 0 mm | - | - | - |
| 1777811502 | 5.56° C | 77% | 1018.7 hPa | 0 mm | - | - | - |
| 1777811202 | 5° C | 79% | 1018.6 hPa | 0 mm | - | - | - |
| 1777810902 | 5° C | 79% | 1018.6 hPa | 0 mm | - | - | - |
| 1777810602 | 4.44° C | 83% | 1018.6 hPa | 0 mm | - | - | - |
| 1777810301 | 4.44° C | 85% | 1018.6 hPa | 0 mm | - | - | - |
| 1777810001 | 3.89° C | 88% | 1018.6 hPa | 0 mm | - | - | - |
| 1777809701 | 3.33° C | 90% | 1018.5 hPa | 0 mm | - | - | - |
| 1777809400 | 3.33° C | 92% | 1018.5 hPa | 0 mm | - | - | - |
| 1777809100 | 2.78° C | 93% | 1018.4 hPa | 0 mm | - | - | - |
| 1777808800 | 2.78° C | 95% | 1018.4 hPa | 0 mm | - | - | - |
| 1777808500 | 2.78° C | 95% | 1018.3 hPa | 0 mm | - | - | - |
* Rain since midnight (hover to see other rain measurements)
** Current wind speed in m/s (hover to see current wind gust speed)